Wetterdaten: Freitag, 02.08.2013
Datum Zeit Temperatur Luftfeuchte Luftdruck Regen Wind Richtung Richtung Taupunkt Windchill Windben
02.08.2013 00:00 15,6 C 71 % 1021,7 hPa 0,0 l/m 0,0 km/h (0 Bft) NO 45 10,4 C 15,7 C 0,0 km/h (0 Bft)
02.08.2013 00:05 15,3 C 71 % 1021,7 hPa 0,0 l/m 0,0 km/h (0 Bft) NO 45 10,1 C 15,4 C 0,0 km/h (0 Bft)
02.08.2013 00:10 15,1 C 72 % 1021,7 hPa 0,0 l/m 0,0 km/h (0 Bft) NO 45 10,1 C 15,2 C 0,0 km/h (0 Bft)
02.08.2013 00:15 14,9 C 73 % 1021,7 hPa 0,0 l/m 0,0 km/h (0 Bft) N-NO 22 10,1 C 14,9 C 0,0 km/h (0 Bft)
02.08.2013 00:20 15,0 C 74 % 1021,7 hPa 0,0 l/m 0,0 km/h (0 Bft) N-NO 22 10,4 C 14,9 C 0,0 km/h (0 Bft)
02.08.2013 00:25 15,4 C 75 % 1021,7 hPa 0,0 l/m 0,2 km/h (0 Bft) NO 45 11,0 C 14,8 C 2,1 km/h (1 Bft)
02.08.2013 00:30 15,5 C 74 % 1021,7 hPa 0,0 l/m 0,3 km/h (0 Bft) N-NO 22 10,9 C 14,9 C 0,0 km/h (0 Bft)
02.08.2013 00:35 15,3 C 73 % 1021,7 hPa 0,0 l/m 0,3 km/h (0 Bft) N-NO 22 10,5 C 15,0 C 0,0 km/h (0 Bft)
02.08.2013 00:40 15,4 C 74 % 1021,6 hPa 0,0 l/m 0,2 km/h (0 Bft) N-NO 22 10,8 C 15,0 C 1,6 km/h (1 Bft)
02.08.2013 00:45 15,3 C 73 % 1021,6 hPa 0,0 l/m 0,2 km/h (0 Bft) N 360 10,5 C 15,0 C 0,0 km/h (0 Bft)
02.08.2013 00:50 15,1 C 73 % 1021,6 hPa 0,0 l/m 0,2 km/h (0 Bft) N-NO 22 10,3 C 15,0 C 0,0 km/h (0 Bft)
02.08.2013 00:55 15,0 C 73 % 1021,6 hPa 0,0 l/m 0,0 km/h (0 Bft) N-NO 22 10,2 C 14,9 C 0,0 km/h (0 Bft)
02.08.2013 01:00 15,3 C 75 % 1021,6 hPa 0,0 l/m 0,2 km/h (0 Bft) N-NO 22 10,9 C 14,9 C 0,0 km/h (0 Bft)
02.08.2013 01:05 15,5 C 73 % 1021,6 hPa 0,0 l/m 0,2 km/h (0 Bft) O 90 10,7 C 14,9 C 2,6 km/h (1 Bft)
02.08.2013 01:10 15,4 C 72 % 1021,6 hPa 0,0 l/m 0,0 km/h (0 Bft) NO 45 10,4 C 14,9 C 0,0 km/h (0 Bft)
02.08.2013 01:15 15,1 C 72 % 1021,6 hPa 0,0 l/m 0,0 km/h (0 Bft) N-NO 22 10,1 C 14,9 C 0,0 km/h (0 Bft)
02.08.2013 01:20 15,0 C 73 % 1021,7 hPa 0,0 l/m 0,0 km/h (0 Bft) NO 45 10,2 C 14,9 C 0,0 km/h (0 Bft)
02.08.2013 01:25 15,3 C 74 % 1021,7 hPa 0,0 l/m 0,2 km/h (0 Bft) NO 45 10,7 C 14,8 C 0,0 km/h (0 Bft)
02.08.2013 01:30 15,6 C 73 % 1021,7 hPa 0,0 l/m 0,3 km/h (0 Bft) N 360 10,8 C 14,9 C 0,0 km/h (0 Bft)
02.08.2013 01:35 15,2 C 73 % 1021,7 hPa 0,0 l/m 0,2 km/h (0 Bft) N-NO 22 10,4 C 15,0 C 0,0 km/h (0 Bft)
02.08.2013 01:40 15,0 C 73 % 1021,8 hPa 0,0 l/m 0,0 km/h (0 Bft) N 360 10,2 C 14,9 C 0,0 km/h (0 Bft)
02.08.2013 01:45 14,9 C 75 % 1021,8 hPa 0,0 l/m 0,2 km/h (0 Bft) N 360 10,5 C 14,7 C 1,8 km/h (1 Bft)
02.08.2013 01:50 15,1 C 76 % 1021,8 hPa 0,0 l/m 0,5 km/h (0 Bft) NO 45 10,9 C 14,7 C 2,4 km/h (1 Bft)
02.08.2013 01:55 15,1 C 74 % 1021,8 hPa 0,0 l/m 0,5 km/h (0 Bft) O-NO 67 10,5 C 14,8 C 0,0 km/h (0 Bft)
02.08.2013 02:00 14,8 C 74 % 1021,8 hPa 0,0 l/m 0,2 km/h (0 Bft) N-NO 22 10,2 C 14,6 C 0,0 km/h (0 Bft)
02.08.2013 02:05 14,6 C 74 % 1021,8 hPa 0,0 l/m 0,0 km/h (0 Bft) N 360 10,0 C 14,5 C 0,0 km/h (0 Bft)
02.08.2013 02:10 14,5 C 74 % 1021,8 hPa 0,0 l/m 0,0 km/h (0 Bft) NO 45 9,9 C 14,4 C 0,0 km/h (0 Bft)
02.08.2013 02:15 14,2 C 74 % 1021,8 hPa 0,0 l/m 0,0 km/h (0 Bft) NO 45 9,6 C 14,2 C 0,0 km/h (0 Bft)
02.08.2013 02:20 14,3 C 75 % 1021,6 hPa 0,0 l/m 0,0 km/h (0 Bft) NO 45 9,9 C 14,1 C 0,0 km/h (0 Bft)
02.08.2013 02:25 14,0 C 75 % 1021,6 hPa 0,0 l/m 0,0 km/h (0 Bft) N 360 9,6 C 13,9 C 0,0 km/h (0 Bft)
02.08.2013 02:30 14,0 C 76 % 1021,6 hPa 0,0 l/m 0,0 km/h (0 Bft) NO 45 9,8 C 13,9 C 1,6 km/h (1 Bft)
02.08.2013 02:35 14,6 C 76 % 1021,6 hPa 0,0 l/m 0,2 km/h (0 Bft) N 360 10,4 C 14,1 C 0,0 km/h (0 Bft)
02.08.2013 02:40 14,3 C 75 % 1021,5 hPa 0,0 l/m 0,2 km/h (0 Bft) N 360 9,9 C 14,1 C 0,0 km/h (0 Bft)
02.08.2013 02:45 14,3 C 76 % 1021,5 hPa 0,0 l/m 0,2 km/h (0 Bft) N 360 10,1 C 14,0 C 1,8 km/h (1 Bft)
02.08.2013 02:50 14,3 C 76 % 1021,5 hPa 0,0 l/m 0,2 km/h (0 Bft) N-NO 22 10,1 C 14,0 C 0,0 km/h (0 Bft)
02.08.2013 02:55 14,3 C 76 % 1021,5 hPa 0,0 l/m 0,6 km/h (0 Bft) NO 45 10,1 C 14,2 C 0,0 km/h (0 Bft)
02.08.2013 03:00 14,3 C 76 % 1021,3 hPa 0,0 l/m 0,5 km/h (0 Bft) NO 45 10,1 C 14,1 C 0,0 km/h (0 Bft)
02.08.2013 03:05 13,9 C 76 % 1021,3 hPa 0,0 l/m 0,0 km/h (0 Bft) NO 45 9,7 C 13,9 C 0,0 km/h (0 Bft)
02.08.2013 03:10 13,8 C 76 % 1021,3 hPa 0,0 l/m 0,0 km/h (0 Bft) NO 45 9,6 C 13,7 C 0,0 km/h (0 Bft)
02.08.2013 03:15 13,6 C 76 % 1021,3 hPa 0,0 l/m 0,0 km/h (0 Bft) NO 45 9,4 C 13,7 C 0,0 km/h (0 Bft)
02.08.2013 03:20 13,6 C 76 % 1021,4 hPa 0,0 l/m 0,0 km/h (0 Bft) NO 45 9,4 C 13,7 C 0,0 km/h (0 Bft)
02.08.2013 03:25 13,5 C 77 % 1021,4 hPa 0,0 l/m 0,0 km/h (0 Bft) NO 45 9,5 C 13,6 C 0,0 km/h (0 Bft)
02.08.2013 03:30 13,6 C 77 % 1021,4 hPa 0,0 l/m 0,0 km/h (0 Bft) NO 45 9,6 C 13,5 C 0,0 km/h (0 Bft)
02.08.2013 03:35 13,6 C 77 % 1021,4 hPa 0,0 l/m 0,0 km/h (0 Bft) NO 45 9,6 C 13,5 C 0,0 km/h (0 Bft)
02.08.2013 03:40 14,1 C 78 % 1021,2 hPa 0,0 l/m 0,0 km/h (0 Bft) O-NO 67 10,3 C 13,6 C 0,0 km/h (0 Bft)
02.08.2013 03:45 14,1 C 77 % 1021,2 hPa 0,0 l/m 0,0 km/h (0 Bft) O 90 10,1 C 13,9 C 0,0 km/h (0 Bft)
02.08.2013 03:50 13,9 C 77 % 1021,2 hPa 0,0 l/m 0,0 km/h (0 Bft) O 90 9,9 C 13,9 C 0,0 km/h (0 Bft)
02.08.2013 03:55 14,0 C 78 % 1021,2 hPa 0,0 l/m 0,0 km/h (0 Bft) O-NO 67 10,2 C 13,9 C 0,0 km/h (0 Bft)
02.08.2013 04:00 14,1 C 78 % 1021,3 hPa 0,0 l/m 0,0 km/h (0 Bft) O-NO 67 10,3 C 13,9 C 0,0 km/h (0 Bft)
02.08.2013 04:05 13,9 C 78 % 1021,3 hPa 0,0 l/m 0,0 km/h (0 Bft) S 180 10,1 C 14,1 C 0,0 km/h (0 Bft)
02.08.2013 04:10 13,8 C 78 % 1021,3 hPa 0,0 l/m 0,0 km/h (0 Bft) S 180 10,0 C 14,1 C 0,0 km/h (0 Bft)
02.08.2013 04:15 14,2 C 78 % 1021,3 hPa 0,0 l/m 0,0 km/h (0 Bft) NO 45 10,4 C 14,0 C 0,0 km/h (0 Bft)
02.08.2013 04:20 14,2 C 78 % 1021,1 hPa 0,0 l/m 0,0 km/h (0 Bft) NO 45 10,4 C 14,0 C 0,0 km/h (0 Bft)
02.08.2013 04:25 13,9 C 78 % 1021,1 hPa 0,0 l/m 0,0 km/h (0 Bft) NO 45 10,1 C 13,9 C 0,0 km/h (0 Bft)
02.08.2013 04:30 14,0 C 77 % 1021,1 hPa 0,0 l/m 0,0 km/h (0 Bft) N-NO 22 10,0 C 13,8 C 0,0 km/h (0 Bft)
02.08.2013 04:35 13,9 C 78 % 1021,1 hPa 0,0 l/m 0,0 km/h (0 Bft) N-NO 22 10,1 C 13,8 C 0,0 km/h (0 Bft)
02.08.2013 04:40 13,8 C 78 % 1021,1 hPa 0,0 l/m 0,0 km/h (0 Bft) NO 45 10,0 C 13,7 C 0,0 km/h (0 Bft)
02.08.2013 04:45 13,8 C 78 % 1021,1 hPa 0,0 l/m 0,0 km/h (0 Bft) O-NO 67 10,0 C 13,7 C 0,0 km/h (0 Bft)
02.08.2013 04:50 13,7 C 78 % 1021,1 hPa 0,0 l/m 0,0 km/h (0 Bft) O-NO 67 9,9 C 13,6 C 0,0 km/h (0 Bft)
02.08.2013 04:55 13,6 C 78 % 1021,1 hPa 0,0 l/m 0,0 km/h (0 Bft) N-NO 22 9,8 C 13,4 C 0,0 km/h (0 Bft)
02.08.2013 05:00 13,4 C 78 % 1021,2 hPa 0,0 l/m 0,0 km/h (0 Bft) N-NO 22 9,6 C 13,4 C 0,0 km/h (0 Bft)
02.08.2013 05:05 13,2 C 78 % 1021,2 hPa 0,0 l/m 0,0 km/h (0 Bft) N-NO 22 9,4 C 13,2 C 0,0 km/h (0 Bft)
02.08.2013 05:10 13,4 C 79 % 1021,2 hPa 0,0 l/m 0,0 km/h (0 Bft) N 360 9,8 C 13,2 C 0,0 km/h (0 Bft)
02.08.2013 05:15 13,1 C 79 % 1021,2 hPa 0,0 l/m 0,0 km/h (0 Bft) N 360 9,5 C 13,2 C 0,0 km/h (0 Bft)
02.08.2013 05:20 13,2 C 79 % 1021,5 hPa 0,0 l/m 0,0 km/h (0 Bft) N 360 9,6 C 13,1 C 0,0 km/h (0 Bft)
02.08.2013 05:25 13,3 C 80 % 1021,5 hPa 0,0 l/m 0,0 km/h (0 Bft) N 360 9,9 C 13,2 C 0,0 km/h (0 Bft)
02.08.2013 05:30 13,3 C 80 % 1021,5 hPa 0,0 l/m 0,0 km/h (0 Bft) N 360 9,9 C 13,2 C 0,0 km/h (0 Bft)
02.08.2013 05:35 13,7 C 80 % 1021,5 hPa 0,0 l/m 0,0 km/h (0 Bft) N 360 10,3 C 13,2 C 0,0 km/h (0 Bft)
02.08.2013 05:40 14,0 C 80 % 1021,5 hPa 0,0 l/m 0,0 km/h (0 Bft) N 360 10,6 C 13,2 C 0,0 km/h (0 Bft)
02.08.2013 05:45 13,6 C 79 % 1021,5 hPa 0,0 l/m 0,0 km/h (0 Bft) N 360 10,0 C 13,2 C 0,0 km/h (0 Bft)
02.08.2013 05:50 13,5 C 80 % 1021,5 hPa 0,0 l/m 0,0 km/h (0 Bft) N 360 10,1 C 13,3 C 0,0 km/h (0 Bft)
02.08.2013 05:55 13,7 C 81 % 1021,5 hPa 0,0 l/m 0,0 km/h (0 Bft) N-NO 22 10,5 C 13,4 C 0,0 km/h (0 Bft)
02.08.2013 06:00 13,7 C 80 % 1021,6 hPa 0,0 l/m 0,0 km/h (0 Bft) NO 45 10,3 C 13,3 C 0,0 km/h (0 Bft)
02.08.2013 06:05 13,5 C 80 % 1021,6 hPa 0,0 l/m 0,0 km/h (0 Bft) N 360 10,1 C 13,2 C 0,0 km/h (0 Bft)
02.08.2013 06:10 13,3 C 80 % 1021,6 hPa 0,0 l/m 0,0 km/h (0 Bft) NO 45 9,9 C 13,2 C 0,0 km/h (0 Bft)
02.08.2013 06:15 13,1 C 80 % 1021,6 hPa 0,0 l/m 0,0 km/h (0 Bft) N 360 9,7 C 13,0 C 0,0 km/h (0 Bft)
02.08.2013 06:20 13,1 C 80 % 1021,7 hPa 0,0 l/m 0,0 km/h (0 Bft) N-NO 22 9,7 C 13,0 C 0,0 km/h (0 Bft)
02.08.2013 06:25 13,3 C 81 % 1021,7 hPa 0,0 l/m 0,0 km/h (0 Bft) N-NO 22 10,1 C 13,1 C 0,0 km/h (0 Bft)
02.08.2013 06:30 13,4 C 81 % 1021,7 hPa 0,0 l/m 0,0 km/h (0 Bft) NO 45 10,2 C 13,2 C 0,0 km/h (0 Bft)
02.08.2013 06:35 13,7 C 82 % 1021,7 hPa 0,0 l/m 0,0 km/h (0 Bft) N-NO 22 10,7 C 13,6 C 0,0 km/h (0 Bft)
02.08.2013 06:40 14,1 C 81 % 1021,6 hPa 0,0 l/m 0,0 km/h (0 Bft) N 360 10,9 C 14,9 C 0,0 km/h (0 Bft)
02.08.2013 06:45 16,5 C 78 % 1021,6 hPa 0,0 l/m 0,2 km/h (0 Bft) NO 45 12,6 C 16,7 C 0,0 km/h (0 Bft)
02.08.2013 06:50 17,6 C 75 % 1021,6 hPa 0,0 l/m 0,2 km/h (0 Bft) N-NO 22 13,1 C 17,5 C 0,0 km/h (0 Bft)
02.08.2013 06:55 17,7 C 71 % 1021,6 hPa 0,0 l/m 0,0 km/h (0 Bft) N-NO 22 12,4 C 18,8 C 0,0 km/h (0 Bft)
02.08.2013 07:00 18,4 C 70 % 1021,7 hPa 0,0 l/m 0,0 km/h (0 Bft) N 360 12,8 C 19,5 C 0,0 km/h (0 Bft)
02.08.2013 07:05 20,0 C 67 % 1021,7 hPa 0,0 l/m 0,0 km/h (0 Bft) NO 45 13,7 C 20,8 C 0,0 km/h (0 Bft)
02.08.2013 07:10 20,8 C 66 % 1021,7 hPa 0,0 l/m 0,0 km/h (0 Bft) NO 45 14,2 C 21,5 C 0,0 km/h (0 Bft)
02.08.2013 07:15 21,8 C 63 % 1021,7 hPa 0,0 l/m 0,0 km/h (0 Bft) NO 45 14,4 C 22,5 C 0,0 km/h (0 Bft)
02.08.2013 07:20 22,0 C 61 % 1021,8 hPa 0,0 l/m 0,0 km/h (0 Bft) NO 45 14,1 C 23,1 C 0,0 km/h (0 Bft)
02.08.2013 07:25 21,8 C 60 % 1021,8 hPa 0,0 l/m 0,0 km/h (0 Bft) NO 45 13,7 C 23,8 C 0,0 km/h (0 Bft)
02.08.2013 07:30 20,9 C 61 % 1021,8 hPa 0,0 l/m 0,0 km/h (0 Bft) NO 45 13,1 C 24,3 C 0,0 km/h (0 Bft)
02.08.2013 07:35 18,6 C 64 % 1021,8 hPa 0,0 l/m 0,2 km/h (0 Bft) NO 45 11,7 C 24,6 C 0,0 km/h (0 Bft)
02.08.2013 07:40 20,2 C 64 % 1021,9 hPa 0,0 l/m 0,2 km/h (0 Bft) N 360 13,2 C 24,8 C 0,0 km/h (0 Bft)
02.08.2013 07:45 23,5 C 59 % 1021,9 hPa 0,0 l/m 0,0 km/h (0 Bft) N-NO 22 15,0 C 25,4 C 0,0 km/h (0 Bft)
02.08.2013 07:50 24,3 C 56 % 1021,9 hPa 0,0 l/m 0,0 km/h (0 Bft) NO 45 14,9 C 25,6 C 0,0 km/h (0 Bft)
02.08.2013 07:55 24,7 C 53 % 1021,9 hPa 0,0 l/m 0,0 km/h (0 Bft) NO 45 14,5 C 25,9 C 1,6 km/h (1 Bft)
02.08.2013 08:00 25,8 C 55 % 1022,1 hPa 0,0 l/m 0,0 km/h (0 Bft) O-NO 67 16,1 C 26,4 C 0,0 km/h (0 Bft)
02.08.2013 08:05 26,3 C 50 % 1022,1 hPa 0,0 l/m 0,0 km/h (0 Bft) O-NO 67 15,0 C 27,4 C 0,0 km/h (0 Bft)
02.08.2013 08:10 26,8 C 50 % 1022,1 hPa 0,0 l/m 0,0 km/h (0 Bft) O-NO 67 15,5 C 27,8 C 0,0 km/h (0 Bft)
02.08.2013 08:15 27,2 C 49 % 1022,1 hPa 0,0 l/m 0,0 km/h (0 Bft) NO 45 15,5 C 28,4 C 0,0 km/h (0 Bft)
02.08.2013 08:20 27,6 C 49 % 1022,4 hPa 0,0 l/m 0,0 km/h (0 Bft) N-NO 22 15,9 C 28,5 C 0,0 km/h (0 Bft)
02.08.2013 08:25 28,3 C 49 % 1022,4 hPa 0,0 l/m 0,0 km/h (0 Bft) O-NO 67 16,5 C 28,7 C 0,0 km/h (0 Bft)
02.08.2013 08:30 28,8 C 48 % 1022,4 hPa 0,0 l/m 0,0 km/h (0 Bft) NO 45 16,7 C 29,1 C 0,0 km/h (0 Bft)
02.08.2013 08:35 28,8 C 46 % 1022,4 hPa 0,0 l/m 0,2 km/h (0 Bft) O 90 16,0 C 29,8 C 0,0 km/h (0 Bft)
02.08.2013 08:40 28,7 C 46 % 1022,5 hPa 0,0 l/m 0,2 km/h (0 Bft) O-NO 67 15,9 C 30,3 C 0,0 km/h (0 Bft)
02.08.2013 08:45 29,4 C 48 % 1022,5 hPa 0,0 l/m 0,0 km/h (0 Bft) NO 45 17,2 C 30,6 C 0,0 km/h (0 Bft)
02.08.2013 08:50 29,4 C 47 % 1022,5 hPa 0,0 l/m 0,0 km/h (0 Bft) O 90 16,9 C 31,0 C 0,0 km/h (0 Bft)
02.08.2013 08:55 30,1 C 46 % 1022,5 hPa 0,0 l/m 0,0 km/h (0 Bft) NO 45 17,2 C 31,7 C 0,0 km/h (0 Bft)
02.08.2013 09:00 29,6 C 45 % 1022,4 hPa 0,0 l/m 0,0 km/h (0 Bft) N-NW 337 16,4 C 32,6 C 0,0 km/h (0 Bft)
02.08.2013 09:05 29,8 C 46 % 1022,4 hPa 0,0 l/m 0,0 km/h (0 Bft) O-NO 67 16,9 C 33,0 C 0,0 km/h (0 Bft)
02.08.2013 09:10 29,6 C 46 % 1022,4 hPa 0,0 l/m 0,0 km/h (0 Bft) O 90 16,7 C 33,3 C 0,0 km/h (0 Bft)
02.08.2013 09:15 30,2 C 45 % 1022,4 hPa 0,0 l/m 0,0 km/h (0 Bft) O-SO 112 16,9 C 33,3 C 0,0 km/h (0 Bft)
02.08.2013 09:20 29,8 C 46 % 1022,5 hPa 0,0 l/m 0,0 km/h (0 Bft) O-SO 112 16,9 C 33,3 C 0,0 km/h (0 Bft)
02.08.2013 09:25 29,8 C 47 % 1022,5 hPa 0,0 l/m 0,0 km/h (0 Bft) O-NO 67 17,2 C 33,9 C 0,0 km/h (0 Bft)
02.08.2013 09:30 29,8 C 46 % 1022,5 hPa 0,0 l/m 0,0 km/h (0 Bft) NO 45 16,9 C 34,1 C 0,0 km/h (0 Bft)
02.08.2013 09:35 30,8 C 46 % 1022,5 hPa 0,0 l/m 0,0 km/h (0 Bft) N-NO 22 17,8 C 34,3 C 0,0 km/h (0 Bft)
02.08.2013 09:40 31,8 C 46 % 1022,5 hPa 0,0 l/m 0,0 km/h (0 Bft) SO 135 18,7 C 34,3 C 0,0 km/h (0 Bft)
02.08.2013 09:45 31,1 C 43 % 1022,5 hPa 0,0 l/m 0,2 km/h (0 Bft) SO 135 17,0 C 34,5 C 0,0 km/h (0 Bft)
02.08.2013 09:50 32,0 C 39 % 1022,5 hPa 0,0 l/m 0,2 km/h (0 Bft) NO 45 16,3 C 34,8 C 2,3 km/h (1 Bft)
02.08.2013 09:55 31,3 C 37 % 1022,5 hPa 0,0 l/m 0,5 km/h (0 Bft) O 90 14,8 C 34,8 C 1,8 km/h (1 Bft)
02.08.2013 10:00 31,6 C 39 % 1022,6 hPa 0,0 l/m 0,6 km/h (0 Bft) O 90 15,9 C 34,8 C 0,0 km/h (0 Bft)
02.08.2013 10:05 31,5 C 36 % 1022,6 hPa 0,0 l/m 0,6 km/h (0 Bft) N-NW 337 14,6 C 34,8 C 4,0 km/h (1 Bft)
02.08.2013 10:10 31,6 C 36 % 1022,6 hPa 0,0 l/m 0,6 km/h (0 Bft) S 180 14,7 C 34,9 C 0,0 km/h (0 Bft)
02.08.2013 10:15 32,1 C 38 % 1022,6 hPa 0,0 l/m 0,8 km/h (0 Bft) W-SW 247 16,0 C 35,2 C 1,8 km/h (1 Bft)
02.08.2013 10:20 32,1 C 34 % 1022,9 hPa 0,0 l/m 1,1 km/h (1 Bft) NW 315 14,2 C 34,9 C 4,8 km/h (1 Bft)
02.08.2013 10:25 31,9 C 33 % 1022,9 hPa 0,0 l/m 2,3 km/h (1 Bft) NO 45 13,6 C 34,2 C 5,1 km/h (1 Bft)
02.08.2013 10:30 31,5 C 34 % 1022,9 hPa 0,0 l/m 2,9 km/h (1 Bft) NW 315 13,7 C 33,9 C 2,7 km/h (1 Bft)
02.08.2013 10:35 31,8 C 34 % 1022,9 hPa 0,0 l/m 2,4 km/h (1 Bft) NO 45 14,0 C 33,8 C 7,6 km/h (2 Bft)
02.08.2013 10:40 31,5 C 33 % 1023,2 hPa 0,0 l/m 2,1 km/h (1 Bft) NO 45 13,2 C 33,9 C 2,4 km/h (1 Bft)
02.08.2013 10:45 31,4 C 33 % 1023,2 hPa 0,0 l/m 2,4 km/h (1 Bft) NW 315 13,2 C 34,0 C 2,9 km/h (1 Bft)
02.08.2013 10:50 31,3 C 32 % 1023,2 hPa 0,0 l/m 2,3 km/h (1 Bft) N 360 12,6 C 33,9 C 0,0 km/h (0 Bft)
02.08.2013 10:55 31,5 C 33 % 1023,2 hPa 0,0 l/m 2,1 km/h (1 Bft) NW 315 13,2 C 33,8 C 1,8 km/h (1 Bft)
02.08.2013 11:00 31,6 C 32 % 1023,2 hPa 0,0 l/m 2,9 km/h (1 Bft) N-NW 337 12,9 C 33,8 C 7,4 km/h (2 Bft)
02.08.2013 11:05 31,3 C 30 % 1023,2 hPa 0,0 l/m 3,4 km/h (1 Bft) W-NW 292 11,6 C 33,6 C 3,9 km/h (1 Bft)
02.08.2013 11:10 31,9 C 31 % 1023,2 hPa 0,0 l/m 3,4 km/h (1 Bft) N-NO 22 12,6 C 33,3 C 0,0 km/h (0 Bft)
02.08.2013 11:15 31,9 C 31 % 1023,2 hPa 0,0 l/m 3,5 km/h (1 Bft) N 360 12,6 C 33,3 C 8,0 km/h (2 Bft)
02.08.2013 11:20 32,3 C 30 % 1023,5 hPa 0,0 l/m 3,4 km/h (1 Bft) NO 45 12,5 C 33,2 C 3,2 km/h (1 Bft)
02.08.2013 11:25 32,3 C 28 % 1023,5 hPa 0,0 l/m 3,7 km/h (1 Bft) N-NO 22 11,4 C 33,1 C 5,0 km/h (1 Bft)
02.08.2013 11:30 32,3 C 31 % 1023,5 hPa 0,0 l/m 3,5 km/h (1 Bft) N 360 13,0 C 33,1 C 5,3 km/h (1 Bft)
02.08.2013 11:35 32,7 C 29 % 1023,5 hPa 0,0 l/m 4,2 km/h (1 Bft) W-NW 292 12,3 C 32,7 C 9,3 km/h (2 Bft)
02.08.2013 11:40 32,4 C 27 % 1023,3 hPa 0,0 l/m 4,8 km/h (1 Bft) N-NW 337 11,0 C 32,0 C 4,7 km/h (1 Bft)
02.08.2013 11:45 32,3 C 27 % 1023,3 hPa 0,0 l/m 4,7 km/h (1 Bft) S 180 10,9 C 31,2 C 9,7 km/h (2 Bft)
02.08.2013 11:50 32,7 C 27 % 1023,3 hPa 0,0 l/m 4,2 km/h (1 Bft) N 360 11,2 C 31,0 C 5,5 km/h (1 Bft)
02.08.2013 11:55 32,0 C 28 % 1023,3 hPa 0,0 l/m 4,7 km/h (1 Bft) N-NW 337 11,2 C 31,2 C 11,6 km/h (2 Bft)
02.08.2013 12:00 31,6 C 29 % 1023,3 hPa 0,0 l/m 5,0 km/h (1 Bft) NW 315 11,4 C 31,7 C 6,8 km/h (2 Bft)
02.08.2013 12:05 32,0 C 27 % 1023,3 hPa 0,0 l/m 4,8 km/h (1 Bft) W-NW 292 10,6 C 32,1 C 7,1 km/h (2 Bft)
02.08.2013 12:10 32,1 C 27 % 1023,3 hPa 0,0 l/m 4,7 km/h (1 Bft) N-NW 337 10,7 C 32,4 C 5,5 km/h (1 Bft)
02.08.2013 12:15 32,4 C 28 % 1023,3 hPa 0,0 l/m 4,2 km/h (1 Bft) W 270 11,5 C 32,9 C 6,3 km/h (2 Bft)
02.08.2013 12:20 32,5 C 27 % 1022,8 hPa 0,0 l/m 4,8 km/h (1 Bft) NW 315 11,1 C 32,8 C 6,4 km/h (2 Bft)
02.08.2013 12:25 32,1 C 28 % 1022,8 hPa 0,0 l/m 5,1 km/h (1 Bft) W 270 11,3 C 33,0 C 3,9 km/h (1 Bft)
02.08.2013 12:30 32,3 C 28 % 1022,8 hPa 0,0 l/m 4,8 km/h (1 Bft) NW 315 11,4 C 33,1 C 6,3 km/h (2 Bft)
02.08.2013 12:35 32,2 C 29 % 1022,8 hPa 0,0 l/m 4,2 km/h (1 Bft) N-NW 337 11,9 C 33,2 C 5,0 km/h (1 Bft)
02.08.2013 12:40 32,4 C 28 % 1023,1 hPa 0,0 l/m 3,7 km/h (1 Bft) N-NW 337 11,5 C 33,4 C 5,1 km/h (1 Bft)
02.08.2013 12:45 32,1 C 31 % 1023,1 hPa 0,0 l/m 4,0 km/h (1 Bft) W-NW 292 12,8 C 33,4 C 4,8 km/h (1 Bft)
02.08.2013 12:50 32,2 C 29 % 1023,1 hPa 0,0 l/m 4,0 km/h (1 Bft) N 360 11,9 C 33,8 C 9,0 km/h (2 Bft)
02.08.2013 12:55 31,8 C 31 % 1023,1 hPa 0,0 l/m 4,0 km/h (1 Bft) N-NW 337 12,6 C 33,8 C 3,4 km/h (1 Bft)
02.08.2013 13:00 32,1 C 31 % 1022,8 hPa 0,0 l/m 4,8 km/h (1 Bft) W-NW 292 12,8 C 33,7 C 10,3 km/h (2 Bft)
02.08.2013 13:05 32,2 C 31 % 1022,8 hPa 0,0 l/m 5,3 km/h (1 Bft) NW 315 12,9 C 33,2 C 15,3 km/h (3 Bft)
02.08.2013 13:10 31,9 C 31 % 1022,8 hPa 0,0 l/m 5,8 km/h (2 Bft) W 270 12,6 C 33,2 C 11,3 km/h (2 Bft)
02.08.2013 13:15 31,7 C 31 % 1022,8 hPa 0,0 l/m 6,0 km/h (2 Bft) NW 315 12,5 C 32,7 C 3,5 km/h (1 Bft)
02.08.2013 13:20 32,1 C 31 % 1022,8 hPa 0,0 l/m 5,1 km/h (1 Bft) W-NW 292 12,8 C 33,1 C 2,4 km/h (1 Bft)
02.08.2013 13:25 32,1 C 28 % 1022,8 hPa 0,0 l/m 4,7 km/h (1 Bft) NW 315 11,3 C 33,4 C 9,8 km/h (2 Bft)
02.08.2013 13:30 32,1 C 31 % 1022,8 hPa 0,0 l/m 4,7 km/h (1 Bft) W 270 12,8 C 33,3 C 3,7 km/h (1 Bft)
02.08.2013 13:35 31,8 C 31 % 1022,8 hPa 0,0 l/m 4,5 km/h (1 Bft) N-NW 337 12,6 C 33,5 C 3,7 km/h (1 Bft)
02.08.2013 13:40 32,0 C 28 % 1022,6 hPa 0,0 l/m 4,5 km/h (1 Bft) O 90 11,2 C 33,6 C 5,5 km/h (1 Bft)
02.08.2013 13:45 32,2 C 27 % 1022,6 hPa 0,0 l/m 4,7 km/h (1 Bft) O-SO 112 10,8 C 33,5 C 3,9 km/h (1 Bft)
02.08.2013 13:50 32,4 C 28 % 1022,6 hPa 0,0 l/m 5,1 km/h (1 Bft) W-SW 247 11,5 C 33,4 C 5,3 km/h (1 Bft)
02.08.2013 13:55 32,0 C 27 % 1022,6 hPa 0,0 l/m 4,2 km/h (1 Bft) N-NW 337 10,6 C 33,9 C 6,4 km/h (2 Bft)
02.08.2013 14:00 31,9 C 28 % 1022,5 hPa 0,0 l/m 3,7 km/h (1 Bft) N 360 11,1 C 34,1 C 4,2 km/h (1 Bft)
02.08.2013 14:05 32,3 C 29 % 1022,5 hPa 0,0 l/m 3,7 km/h (1 Bft) W-NW 292 12,0 C 34,5 C 6,8 km/h (2 Bft)
02.08.2013 14:10 32,0 C 27 % 1022,5 hPa 0,0 l/m 3,9 km/h (1 Bft) N 360 10,6 C 34,3 C 6,8 km/h (2 Bft)
02.08.2013 14:16 32,2 C 27 % 1022,5 hPa 0,0 l/m 4,7 km/h (1 Bft) N 360 10,8 C 34,3 C 6,6 km/h (2 Bft)
02.08.2013 14:20 32,2 C 27 % 1022,5 hPa 0,0 l/m 4,7 km/h (1 Bft) N 360 10,8 C 34,3 C 6,6 km/h (2 Bft)
02.08.2013 14:25 32,4 C 28 % 1022,6 hPa 0,0 l/m 3,9 km/h (1 Bft) O-NO 67 11,5 C 34,4 C 0,0 km/h (0 Bft)
02.08.2013 14:30 33,2 C 28 % 1022,6 hPa 0,0 l/m 2,9 km/h (1 Bft) NO 45 12,2 C 35,2 C 3,9 km/h (1 Bft)
02.08.2013 14:35 32,2 C 27 % 1022,6 hPa 0,0 l/m 3,1 km/h (1 Bft) N 360 10,8 C 35,4 C 8,4 km/h (2 Bft)
02.08.2013 14:40 32,5 C 29 % 1022,6 hPa 0,0 l/m 3,4 km/h (1 Bft) W-NW 292 12,1 C 35,4 C 2,4 km/h (1 Bft)
02.08.2013 14:45 33,0 C 25 % 1022,5 hPa 0,0 l/m 3,4 km/h (1 Bft) SW 225 10,3 C 35,6 C 9,0 km/h (2 Bft)
02.08.2013 14:50 32,9 C 27 % 1022,5 hPa 0,0 l/m 4,0 km/h (1 Bft) NW 315 11,4 C 35,2 C 5,8 km/h (2 Bft)
02.08.2013 14:55 33,1 C 26 % 1022,5 hPa 0,0 l/m 4,0 km/h (1 Bft) N-NW 337 11,0 C 35,1 C 2,6 km/h (1 Bft)
02.08.2013 15:00 33,6 C 24 % 1022,5 hPa 0,0 l/m 2,9 km/h (1 Bft) O-NO 67 10,2 C 35,5 C 1,6 km/h (1 Bft)
02.08.2013 15:05 33,4 C 26 % 1022,5 hPa 0,0 l/m 2,3 km/h (1 Bft) W 270 11,2 C 36,0 C 2,9 km/h (1 Bft)
02.08.2013 15:10 33,2 C 25 % 1022,5 hPa 0,0 l/m 2,7 km/h (1 Bft) N-NW 337 10,5 C 36,4 C 6,1 km/h (2 Bft)
02.08.2013 15:15 32,9 C 26 % 1022,5 hPa 0,0 l/m 3,5 km/h (1 Bft) N-NO 22 10,8 C 36,0 C 5,3 km/h (1 Bft)
02.08.2013 15:20 33,2 C 26 % 1022,5 hPa 0,0 l/m 3,5 km/h (1 Bft) W-NW 292 11,1 C 36,0 C 4,5 km/h (1 Bft)
02.08.2013 15:25 33,0 C 23 % 1022,4 hPa 0,0 l/m 3,5 km/h (1 Bft) O 90 9,1 C 35,9 C 2,6 km/h (1 Bft)
02.08.2013 15:30 33,0 C 24 % 1022,4 hPa 0,0 l/m 3,4 km/h (1 Bft) S-SW 202 9,7 C 36,2 C 1,8 km/h (1 Bft)
02.08.2013 15:35 33,3 C 25 % 1022,4 hPa 0,0 l/m 2,6 km/h (1 Bft) W-SW 247 10,6 C 36,6 C 4,2 km/h (1 Bft)
02.08.2013 15:40 33,5 C 25 % 1022,4 hPa 0,0 l/m 2,3 km/h (1 Bft) NW 315 10,7 C 36,6 C 2,1 km/h (1 Bft)
02.08.2013 15:45 33,3 C 25 % 1021,9 hPa 0,0 l/m 2,1 km/h (1 Bft) W-NW 292 10,6 C 36,9 C 2,7 km/h (1 Bft)
02.08.2013 15:50 33,1 C 25 % 1021,9 hPa 0,0 l/m 2,4 km/h (1 Bft) N-NW 337 10,4 C 37,4 C 4,2 km/h (1 Bft)
02.08.2013 15:55 33,6 C 26 % 1021,9 hPa 0,0 l/m 2,6 km/h (1 Bft) W 270 11,4 C 37,2 C 4,2 km/h (1 Bft)
02.08.2013 16:00 33,5 C 24 % 1021,9 hPa 0,0 l/m 1,9 km/h (1 Bft) N 360 10,1 C 37,7 C 2,1 km/h (1 Bft)
02.08.2013 16:05 33,5 C 24 % 1022,2 hPa 0,0 l/m 2,1 km/h (1 Bft) S-SO 157 10,1 C 37,9 C 4,7 km/h (1 Bft)
02.08.2013 16:10 33,4 C 25 % 1022,2 hPa 0,0 l/m 2,1 km/h (1 Bft) N-NW 337 10,7 C 37,8 C 0,0 km/h (0 Bft)
02.08.2013 16:15 33,2 C 26 % 1022,2 hPa 0,0 l/m 1,9 km/h (1 Bft) W-NW 292 11,1 C 38,2 C 0,0 km/h (0 Bft)
02.08.2013 16:20 33,5 C 25 % 1022,2 hPa 0,0 l/m 1,8 km/h (1 Bft) O 90 10,7 C 38,3 C 3,2 km/h (1 Bft)
02.08.2013 16:25 33,0 C 27 % 1022,4 hPa 0,0 l/m 1,9 km/h (1 Bft) NO 45 11,5 C 38,2 C 0,0 km/h (0 Bft)
02.08.2013 16:30 32,6 C 28 % 1022,4 hPa 0,0 l/m 2,3 km/h (1 Bft) W-NW 292 11,7 C 38,7 C 5,5 km/h (1 Bft)
02.08.2013 16:35 32,5 C 31 % 1022,4 hPa 0,0 l/m 3,7 km/h (1 Bft) S-SW 202 13,2 C 37,7 C 3,7 km/h (1 Bft)
02.08.2013 16:40 32,4 C 31 % 1022,4 hPa 0,0 l/m 4,3 km/h (1 Bft) W-NW 292 13,1 C 37,1 C 6,3 km/h (2 Bft)
02.08.2013 16:45 32,2 C 31 % 1022,2 hPa 0,0 l/m 3,1 km/h (1 Bft) S-SW 202 12,9 C 37,1 C 3,7 km/h (1 Bft)
02.08.2013 16:50 31,4 C 31 % 1022,2 hPa 0,0 l/m 3,1 km/h (1 Bft) S-SW 202 12,2 C 37,4 C 3,4 km/h (1 Bft)
02.08.2013 16:55 31,2 C 32 % 1022,2 hPa 0,0 l/m 2,6 km/h (1 Bft) N-NW 337 12,5 C 37,5 C 1,6 km/h (1 Bft)
02.08.2013 17:00 30,7 C 35 % 1022,2 hPa 0,0 l/m 1,9 km/h (1 Bft) S 180 13,5 C 38,1 C 2,4 km/h (1 Bft)
02.08.2013 17:05 30,8 C 33 % 1022,2 hPa 0,0 l/m 2,7 km/h (1 Bft) W-NW 292 12,6 C 37,9 C 7,7 km/h (2 Bft)
02.08.2013 17:10 30,6 C 33 % 1022,2 hPa 0,0 l/m 4,2 km/h (1 Bft) W 270 12,5 C 37,0 C 3,1 km/h (1 Bft)
02.08.2013 17:15 30,3 C 33 % 1022,2 hPa 0,0 l/m 4,2 km/h (1 Bft) S-SW 202 12,2 C 36,9 C 2,4 km/h (1 Bft)
02.08.2013 17:20 30,3 C 32 % 1022,2 hPa 0,0 l/m 2,7 km/h (1 Bft) W-SW 247 11,7 C 37,3 C 4,0 km/h (1 Bft)
02.08.2013 17:25 30,1 C 33 % 1022,2 hPa 0,0 l/m 2,7 km/h (1 Bft) SO 135 12,0 C 37,5 C 0,0 km/h (0 Bft)
02.08.2013 17:30 30,0 C 32 % 1022,2 hPa 0,0 l/m 3,1 km/h (1 Bft) S-SW 202 11,5 C 37,5 C 3,1 km/h (1 Bft)
02.08.2013 17:35 29,5 C 35 % 1022,2 hPa 0,0 l/m 2,7 km/h (1 Bft) W-SW 247 12,4 C 37,3 C 4,3 km/h (1 Bft)
02.08.2013 17:40 29,9 C 33 % 1022,2 hPa 0,0 l/m 2,7 km/h (1 Bft) N 360 11,9 C 37,4 C 6,0 km/h (2 Bft)
02.08.2013 17:45 29,8 C 35 % 1022,4 hPa 0,0 l/m 2,9 km/h (1 Bft) W-SW 247 12,7 C 37,6 C 1,8 km/h (1 Bft)
02.08.2013 17:50 29,8 C 34 % 1022,4 hPa 0,0 l/m 2,6 km/h (1 Bft) S-SO 157 12,2 C 37,4 C 0,0 km/h (0 Bft)
02.08.2013 17:55 29,5 C 35 % 1022,4 hPa 0,0 l/m 1,4 km/h (1 Bft) W 270 12,4 C 37,9 C 2,1 km/h (1 Bft)
02.08.2013 18:00 29,2 C 35 % 1022,4 hPa 0,0 l/m 0,3 km/h (0 Bft) O-NO 67 12,1 C 38,5 C 0,0 km/h (0 Bft)
02.08.2013 18:05 29,2 C 35 % 1021,8 hPa 0,0 l/m 0,2 km/h (0 Bft) O 90 12,1 C 39,3 C 0,0 km/h (0 Bft)
02.08.2013 18:10 29,0 C 35 % 1021,8 hPa 0,0 l/m 0,3 km/h (0 Bft) NO 45 12,0 C 39,8 C 2,9 km/h (1 Bft)
02.08.2013 18:15 29,3 C 35 % 1021,8 hPa 0,0 l/m 0,8 km/h (0 Bft) W-SW 247 12,2 C 39,6 C 2,9 km/h (1 Bft)
02.08.2013 18:20 29,2 C 37 % 1021,8 hPa 0,0 l/m 1,8 km/h (1 Bft) N-NW 337 13,0 C 38,9 C 3,4 km/h (1 Bft)
02.08.2013 18:25 28,9 C 38 % 1025,3 hPa 0,0 l/m 1,8 km/h (1 Bft) N-NW 337 13,1 C 38,6 C 0,0 km/h (0 Bft)
02.08.2013 18:30 28,7 C 37 % 1025,3 hPa 0,0 l/m 1,0 km/h (0 Bft) O-SO 112 12,5 C 38,8 C 1,6 km/h (1 Bft)
02.08.2013 18:35 28,7 C 37 % 1025,3 hPa 0,0 l/m 0,6 km/h (0 Bft) O-SO 112 12,5 C 38,9 C 1,9 km/h (1 Bft)
02.08.2013 18:40 28,9 C 36 % 1025,3 hPa 0,0 l/m 1,1 km/h (1 Bft) O 90 12,3 C 38,8 C 2,9 km/h (1 Bft)
02.08.2013 18:45 28,8 C 36 % 1024,4 hPa 0,0 l/m 1,1 km/h (1 Bft) NO 45 12,2 C 38,6 C 0,0 km/h (0 Bft)
02.08.2013 18:50 28,7 C 37 % 1024,4 hPa 0,0 l/m 0,5 km/h (0 Bft) O-NO 67 12,5 C 38,9 C 0,0 km/h (0 Bft)
02.08.2013 18:55 28,6 C 38 % 1024,4 hPa 0,0 l/m 0,2 km/h (0 Bft) NO 45 12,9 C 39,0 C 0,0 km/h (0 Bft)
02.08.2013 19:00 28,5 C 38 % 1024,4 hPa 0,0 l/m 0,6 km/h (0 Bft) O-NO 67 12,8 C 38,5 C 1,9 km/h (1 Bft)
02.08.2013 19:05 28,4 C 39 % 1022,8 hPa 0,0 l/m 1,1 km/h (1 Bft) O-NO 67 13,1 C 38,2 C 1,8 km/h (1 Bft)
02.08.2013 19:10 28,3 C 39 % 1022,8 hPa 0,0 l/m 1,6 km/h (1 Bft) O 90 13,0 C 37,5 C 2,7 km/h (1 Bft)
02.08.2013 19:15 28,2 C 39 % 1022,8 hPa 0,0 l/m 1,6 km/h (1 Bft) S 180 12,9 C 36,9 C 2,7 km/h (1 Bft)
02.08.2013 19:20 28,0 C 39 % 1022,8 hPa 0,0 l/m 1,6 km/h (1 Bft) O-SO 112 12,7 C 36,5 C 1,6 km/h (1 Bft)
02.08.2013 19:25 27,9 C 39 % 1022,0 hPa 0,0 l/m 1,4 km/h (1 Bft) O 90 12,6 C 36,2 C 2,6 km/h (1 Bft)
02.08.2013 19:30 27,8 C 39 % 1022,0 hPa 0,0 l/m 1,4 km/h (1 Bft) NO 45 12,6 C 36,0 C 2,7 km/h (1 Bft)
02.08.2013 19:35 27,8 C 40 % 1022,0 hPa 0,0 l/m 1,3 km/h (1 Bft) O-NO 67 12,9 C 35,7 C 2,4 km/h (1 Bft)
02.08.2013 19:40 27,9 C 40 % 1022,0 hPa 0,0 l/m 1,3 km/h (1 Bft) NO 45 13,0 C 35,7 C 2,1 km/h (1 Bft)
02.08.2013 19:45 27,7 C 41 % 1021,6 hPa 0,0 l/m 1,3 km/h (1 Bft) O-NO 67 13,2 C 35,4 C 3,2 km/h (1 Bft)
02.08.2013 19:50 27,8 C 40 % 1021,6 hPa 0,0 l/m 2,7 km/h (1 Bft) NO 45 12,9 C 34,5 C 4,2 km/h (1 Bft)
02.08.2013 19:55 27,8 C 41 % 1021,6 hPa 0,0 l/m 3,4 km/h (1 Bft) O-SO 112 13,3 C 33,8 C 3,7 km/h (1 Bft)
02.08.2013 20:00 27,1 C 44 % 1021,6 hPa 0,0 l/m 3,4 km/h (1 Bft) O-NO 67 13,8 C 33,0 C 3,4 km/h (1 Bft)
02.08.2013 20:05 26,8 C 45 % 1021,6 hPa 0,0 l/m 3,1 km/h (1 Bft) O 90 13,9 C 32,5 C 2,7 km/h (1 Bft)
02.08.2013 20:10 26,4 C 47 % 1021,6 hPa 0,0 l/m 2,7 km/h (1 Bft) O-SO 112 14,2 C 31,8 C 2,6 km/h (1 Bft)
02.08.2013 20:15 25,3 C 50 % 1021,6 hPa 0,0 l/m 1,9 km/h (1 Bft) O 90 14,1 C 31,1 C 1,9 km/h (1 Bft)
02.08.2013 20:20 25,4 C 50 % 1021,6 hPa 0,0 l/m 1,8 km/h (1 Bft) O-NO 67 14,2 C 30,2 C 2,7 km/h (1 Bft)
02.08.2013 20:25 25,3 C 50 % 1021,4 hPa 0,0 l/m 2,1 km/h (1 Bft) O 90 14,1 C 29,5 C 3,1 km/h (1 Bft)
02.08.2013 20:30 24,9 C 51 % 1021,4 hPa 0,0 l/m 2,6 km/h (1 Bft) O 90 14,1 C 28,0 C 2,1 km/h (1 Bft)
02.08.2013 20:35 24,5 C 52 % 1021,4 hPa 0,0 l/m 2,7 km/h (1 Bft) O 90 14,0 C 27,0 C 3,2 km/h (1 Bft)
02.08.2013 20:40 24,1 C 52 % 1021,4 hPa 0,0 l/m 3,5 km/h (1 Bft) O 90 13,6 C 25,7 C 4,0 km/h (1 Bft)
02.08.2013 20:45 23,8 C 54 % 1021,7 hPa 0,0 l/m 3,5 km/h (1 Bft) O-SO 112 13,9 C 24,9 C 2,7 km/h (1 Bft)
02.08.2013 20:50 22,7 C 58 % 1021,7 hPa 0,0 l/m 2,7 km/h (1 Bft) O-NO 67 14,0 C 23,7 C 2,7 km/h (1 Bft)
02.08.2013 20:55 22,7 C 59 % 1021,7 hPa 0,0 l/m 2,6 km/h (1 Bft) O 90 14,3 C 23,1 C 3,4 km/h (1 Bft)
02.08.2013 21:00 22,7 C 59 % 1021,7 hPa 0,0 l/m 3,5 km/h (1 Bft) O 90 14,3 C 22,6 C 4,5 km/h (1 Bft)
02.08.2013 21:05 22,6 C 59 % 1021,0 hPa 0,0 l/m 4,0 km/h (1 Bft) O 90 14,2 C 22,5 C 3,9 km/h (1 Bft)
02.08.2013 21:10 22,3 C 61 % 1021,0 hPa 0,0 l/m 4,2 km/h (1 Bft) O 90 14,4 C 22,3 C 4,3 km/h (1 Bft)
02.08.2013 21:15 21,7 C 63 % 1021,0 hPa 0,0 l/m 3,7 km/h (1 Bft) O 90 14,3 C 22,1 C 2,9 km/h (1 Bft)
02.08.2013 21:20 21,3 C 64 % 1021,0 hPa 0,0 l/m 2,9 km/h (1 Bft) O-SO 112 14,2 C 21,7 C 3,1 km/h (1 Bft)
02.08.2013 21:25 21,2 C 64 % 1020,9 hPa 0,0 l/m 2,7 km/h (1 Bft) O 90 14,1 C 21,5 C 3,4 km/h (1 Bft)
02.08.2013 21:30 21,0 C 64 % 1020,9 hPa 0,0 l/m 2,6 km/h (1 Bft) O-SO 112 13,9 C 21,3 C 2,3 km/h (1 Bft)
02.08.2013 21:35 20,9 C 63 % 1020,9 hPa 0,0 l/m 2,3 km/h (1 Bft) O-SO 112 13,6 C 21,3 C 2,3 km/h (1 Bft)
02.08.2013 21:40 20,9 C 64 % 1020,9 hPa 0,0 l/m 1,9 km/h (1 Bft) O-SO 112 13,8 C 21,2 C 2,1 km/h (1 Bft)
02.08.2013 21:45 20,7 C 64 % 1021,0 hPa 0,0 l/m 2,1 km/h (1 Bft) O 90 13,6 C 21,1 C 2,7 km/h (1 Bft)
02.08.2013 21:50 20,6 C 64 % 1021,0 hPa 0,0 l/m 2,1 km/h (1 Bft) O 90 13,5 C 21,0 C 2,1 km/h (1 Bft)
02.08.2013 21:55 20,4 C 64 % 1021,0 hPa 0,0 l/m 1,9 km/h (1 Bft) O-SO 112 13,4 C 20,9 C 2,1 km/h (1 Bft)
02.08.2013 22:00 20,1 C 65 % 1021,0 hPa 0,0 l/m 1,4 km/h (1 Bft) O 90 13,3 C 20,7 C 0,0 km/h (0 Bft)
02.08.2013 22:05 20,1 C 65 % 1021,1 hPa 0,0 l/m 1,0 km/h (0 Bft) O-SO 112 13,3 C 20,5 C 0,0 km/h (0 Bft)
02.08.2013 22:10 20,0 C 65 % 1021,1 hPa 0,0 l/m 0,6 km/h (0 Bft) S-SW 202 13,2 C 20,3 C 2,4 km/h (1 Bft)
02.08.2013 22:15 20,0 C 65 % 1021,1 hPa 0,0 l/m 0,6 km/h (0 Bft) SO 135 13,2 C 20,2 C 0,0 km/h (0 Bft)
02.08.2013 22:20 20,0 C 64 % 1021,1 hPa 0,0 l/m 0,5 km/h (0 Bft) O-SO 112 13,0 C 20,1 C 0,0 km/h (0 Bft)
02.08.2013 22:25 19,9 C 64 % 1021,2 hPa 0,0 l/m 0,3 km/h (0 Bft) O-SO 112 12,9 C 20,0 C 0,0 km/h (0 Bft)
02.08.2013 22:30 19,8 C 64 % 1021,2 hPa 0,0 l/m 0,2 km/h (0 Bft) O-SO 112 12,8 C 19,8 C 0,0 km/h (0 Bft)
02.08.2013 22:35 19,7 C 64 % 1021,2 hPa 0,0 l/m 0,2 km/h (0 Bft) SO 135 12,7 C 19,8 C 0,0 km/h (0 Bft)
02.08.2013 22:40 19,7 C 64 % 1021,2 hPa 0,0 l/m 0,0 km/h (0 Bft) O 90 12,7 C 19,7 C 0,0 km/h (0 Bft)
02.08.2013 22:45 19,8 C 64 % 1021,2 hPa 0,0 l/m 0,0 km/h (0 Bft) O 90 12,8 C 19,6 C 0,0 km/h (0 Bft)
02.08.2013 22:50 19,7 C 63 % 1021,2 hPa 0,0 l/m 0,2 km/h (0 Bft) O 90 12,5 C 19,6 C 0,0 km/h (0 Bft)
02.08.2013 22:55 19,5 C 64 % 1021,2 hPa 0,0 l/m 0,0 km/h (0 Bft) O-SO 112 12,5 C 19,7 C 0,0 km/h (0 Bft)
02.08.2013 23:00 19,4 C 64 % 1021,2 hPa 0,0 l/m 0,0 km/h (0 Bft) S 180 12,4 C 19,8 C 0,0 km/h (0 Bft)
02.08.2013 23:05 19,3 C 64 % 1021,3 hPa 0,0 l/m 0,0 km/h (0 Bft) O-SO 112 12,3 C 19,6 C 0,0 km/h (0 Bft)
02.08.2013 23:10 18,9 C 64 % 1021,3 hPa 0,0 l/m 0,0 km/h (0 Bft) S-SW 202 11,9 C 19,3 C 0,0 km/h (0 Bft)
02.08.2013 23:15 18,8 C 65 % 1021,3 hPa 0,0 l/m 0,0 km/h (0 Bft) O-SO 112 12,1 C 19,1 C 0,0 km/h (0 Bft)
02.08.2013 23:20 18,4 C 65 % 1021,3 hPa 0,0 l/m 0,0 km/h (0 Bft) O-SO 112 11,7 C 18,8 C 0,0 km/h (0 Bft)
02.08.2013 23:25 18,4 C 66 % 1021,2 hPa 0,0 l/m 0,0 km/h (0 Bft) NO 45 11,9 C 18,6 C 0,0 km/h (0 Bft)
02.08.2013 23:30 18,2 C 67 % 1021,2 hPa 0,0 l/m 0,0 km/h (0 Bft) O 90 12,0 C 18,2 C 0,0 km/h (0 Bft)
02.08.2013 23:35 18,0 C 68 % 1021,2 hPa 0,0 l/m 0,0 km/h (0 Bft) NO 45 12,0 C 18,0 C 0,0 km/h (0 Bft)
02.08.2013 23:40 17,8 C 68 % 1021,2 hPa 0,0 l/m 0,0 km/h (0 Bft) NO 45 11,8 C 17,8 C 0,0 km/h (0 Bft)
02.08.2013 23:45 17,7 C 69 % 1021,2 hPa 0,0 l/m 0,0 km/h (0 Bft) NO 45 11,9 C 17,7 C 0,0 km/h (0 Bft)
02.08.2013 23:50 17,7 C 69 % 1021,2 hPa 0,0 l/m 0,0 km/h (0 Bft) NO 45 11,9 C 17,6 C 0,0 km/h (0 Bft)
02.08.2013 23:55 17,6 C 69 % 1021,2 hPa 0,0 l/m 0,0 km/h (0 Bft) NO 45 11,8 C 17,6 C 0,0 km/h (0 Bft)
_ Min-Zeit 06:20 15:25 21:40 - 23:55 - - 15:25 06:20 23:55
Minimum _ 13,1 C 23 % 1020,9 hPa - 0,0 km/h (0 Bft) - - 9,1 C 13,0 C 0,0 km/h (0 Bft)
_ Max-Zeit 15:55 06:35 18:40 23:55 13:15 - - 09:40 18:10 13:05
Maximum _ 33,6 C 82 % 1025,3 hPa 0,0 l/m 6,0 km/h
NW (2 Bft)
- - 18,7 C 39,8 C 15,3 km/h
NW (3 Bft)
Durchschnitt _ 24,1 C 52 % 1022,1 hPa #0,0 l/m 1,5 km/h (1 Bft) O - 12,2 C 26,2 C 2,0 km/h (1 Bft)